Location: Fort Wayne
(41.1310°N, 85.1290°W)
Time: 02:18:27
(UTC-04:00)

Amateur Radio Satellites - All Passes

Search period start: 23 September 2014 01:48
Search period end: 24 September 2014 01:48
Location: Fort Wayne, 41.1310°N, 85.1290°W

Satellite Date Start Highest point End Downlink Frequencies (MHz)
Time Altitude Azimuth
Oscar 16 23 Sep 02:13:19 02:16:59 19° 92° (E) 02:20:36 437.025 USB, Beacon 2401.1428
UOSAT-12 23 Sep 02:22:02 02:24:12 13° 324° (NW) 02:26:24 437.025 FM, 437.400 FM
ISS 23 Sep 02:23:13 02:26:31 67° 141° (SE) 02:29:50 145.800 FM
PANSAT 23 Sep 02:41:39 02:43:17 12° 181° (S) 02:44:54 not established
JAS-1B 23 Sep 02:50:16 02:54:37 22° 94° (E) 02:59:02 435.800 - 435.900 CW/SSB
ITAMSAT 1 23 Sep 03:03:53 03:08:04 24° 94° (E) 03:12:13 435.822 SSB
Uribyol 2 23 Sep 03:06:58 03:11:23 27° 95° (E) 03:15:47 436.500 FM
Saudisat 1A 23 Sep 03:11:33 03:15:03 23° 248° (WSW) 03:18:33 436.775 MHz
Oscar 19 23 Sep 03:11:59 03:17:08 68° 102° (ESE) 03:22:14 437.125 CW, 437.150 USB
Gurwin Techsat 1B 23 Sep 03:14:41 03:17:32 15° 90° (E) 03:20:23 435.225 FM
KITSAT 1 23 Sep 03:20:23 03:27:17 30° 41° (NE) 03:34:09 435.175 FM
AO-Echo 23 Sep 03:34:46 03:39:36 56° 101° (E) 03:44:33 ?
RS-15 23 Sep 03:37:31 03:47:04 35° 106° (ESE) 03:56:28 29.354 - 29.394 USB, Beacon 29.352 USB
AO-27 23 Sep 03:39:14 03:44:20 52° 100° (E) 03:49:25 436.795 MHz FM
TMSAT-1 23 Sep 03:48:18 03:52:25 23° 93° (E) 03:56:31 436.925 FM
Oscar 16 23 Sep 03:51:36 03:56:37 51° 289° (WNW) 04:01:34 437.025 USB, Beacon 2401.1428
ISS 23 Sep 04:00:47 04:03:29 23° 339° (NNW) 04:06:12 145.800 FM
JAS-1B 23 Sep 04:40:13 04:45:37 45° 291° (WNW) 04:51:04 435.800 - 435.900 CW/SSB
ITAMSAT 1 23 Sep 04:42:48 04:47:41 42° 291° (WNW) 04:52:34 435.822 SSB
Uribyol 2 23 Sep 04:46:08 04:50:54 37° 292° (WNW) 04:55:40 436.500 FM
Uosat F 23 Sep 04:50:11 04:52:34 13° 90° (E) 04:54:56 435.120 FM
Gurwin Techsat 1B 23 Sep 04:52:42 04:58:00 69° 286° (WNW) 05:03:16 435.225 FM
Oscar 19 23 Sep 04:52:52 04:55:54 16° 299° (WNW) 04:58:55 437.125 CW, 437.150 USB
OPAL 23 Sep 05:08:12 05:13:15 54° 69° (ENE) 05:18:20 ?
AO-Echo 23 Sep 05:14:47 05:17:57 18° 296° (WNW) 05:21:11 ?
KITSAT 1 23 Sep 05:15:23 05:23:27 75° 243° (WSW) 05:31:28 435.175 FM
AO-7 23 Sep 05:17:19 05:24:49 36° 98° (E) 05:32:15 29.400 - 29.500 MHz
AO-27 23 Sep 05:19:41 05:23:27 21° 297° (WNW) 05:27:13 436.795 MHz FM
TMSAT-1 23 Sep 05:27:29 05:32:32 45° 290° (WNW) 05:37:33 436.925 FM
ISS 23 Sep 05:39:22 05:41:07 14° 360° (N) 05:42:52 145.800 FM
RS-15 23 Sep 05:47:45 05:58:41 66° 308° (NW) 06:09:35 29.354 - 29.394 USB, Beacon 29.352 USB
STRAND 1 23 Sep 06:00:14 06:00:53 10° 57° (ENE) 06:01:32 ?
SO-50 23 Sep 06:11:55 06:15:55 25° 45° (NE) 06:19:57 436.795 FM
Uosat F 23 Sep 06:26:49 06:31:50 70° 287° (WNW) 06:36:49 435.120 FM
JAS-2 23 Sep 06:29:28 06:34:40 26° 95° (E) 06:40:19 435.800 - 435.900 CW/SSB, 435.910 FM
Hamsat 23 Sep 06:41:45 06:44:49 19° 93° (E) 06:47:51 145.90 MHz
OPAL 23 Sep 06:48:49 06:52:25 19° 266° (W) 06:56:04 ?
AO-7 23 Sep 07:09:52 07:17:46 51° 296° (WNW) 07:25:40 29.400 - 29.500 MHz
KITSAT 1 23 Sep 07:13:55 07:17:27 14° 261° (W) 07:20:59 435.175 FM
ISS 23 Sep 07:16:05 07:18:46 22° 20° (NNE) 07:21:25 145.800 FM
MaSat-1 23 Sep 07:20:06 07:23:06 16° 102° (ESE) 07:26:06 437.345 MHz
UOSAT-12 23 Sep 07:29:25 07:32:17 16° 39° (NE) 07:35:08 437.025 FM, 437.400 FM
STRAND 1 23 Sep 07:34:08 07:39:12 79° 74° (ENE) 07:44:19 ?
SO-50 23 Sep 07:52:04 07:56:41 46° 243° (WSW) 08:01:19 436.795 FM
RS-15 23 Sep 08:05:07 08:13:41 25° 337° (NNW) 08:22:19 29.354 - 29.394 USB, Beacon 29.352 USB
JAS-2 23 Sep 08:13:53 08:19:53 54° 288° (WNW) 08:26:38 435.800 - 435.900 CW/SSB, 435.910 FM
Hamsat 23 Sep 08:17:02 08:20:53 34° 289° (WNW) 08:24:41 145.90 MHz
SO-67 23 Sep 08:40:51 08:44:17 62° 100° (E) 08:47:41 435.3500 MHz FM
ISS 23 Sep 08:52:26 08:55:45 73° 218° (SW) 08:59:04 145.800 FM
MaSat-1 23 Sep 08:54:23 08:59:20 63° 298° (WNW) 09:04:10 437.345 MHz
AO-7 23 Sep 09:06:08 09:08:37 12° 317° (NW) 09:11:07 29.400 - 29.500 MHz
UOSAT-12 23 Sep 09:08:21 09:13:06 87° 238° (WSW) 09:17:45 437.025 FM, 437.400 FM
STRAND 1 23 Sep 09:17:15 09:18:58 12° 271° (W) 09:20:42 ?
HO-68 23 Sep 09:32:40 09:37:56 21° 92° (E) 09:43:10 435.675 MHz FM
RS-15 23 Sep 10:23:26 10:31:24 22° 14° (NNE) 10:39:29 29.354 - 29.394 USB, Beacon 29.352 USB
UKube-1 23 Sep 10:24:55 10:28:10 20° 94° (E) 10:31:25 145.840 MHz, 145.915 MHz
MaSat-1 23 Sep 10:36:16 10:36:54 10° 315° (NW) 10:37:31 437.345 MHz
ZACube-1 23 Sep 10:49:08 10:51:06 13° 89° (E) 10:53:03 437.345 MHz
HO-68 23 Sep 11:19:03 11:26:12 71° 290° (WNW) 11:33:20 435.675 MHz FM
Sapphire 23 Sep 11:20:49 11:24:47 21° 106° (ESE) 11:28:47 437.095 MHz 1200 baud AX-25 AFSK
Oscar 11 23 Sep 11:39:22 11:43:44 77° 284° (WNW) 11:48:02 145.825 FM, Beacon 2401.500 USB
FUNcube-1 23 Sep 11:40:10 11:44:35 44° 98° (E) 11:48:54 145.950 - 145.970 MHz USB
PCSat 23 Sep 11:46:10 11:51:08 39° 111° (ESE) 11:56:08 145.825 MHz
UKube-1 23 Sep 12:00:28 12:04:27 36° 290° (WNW) 12:08:26 145.840 MHz, 145.915 MHz
ZACube-1 23 Sep 12:23:21 12:27:56 64° 286° (WNW) 12:32:26 437.345 MHz
RS-15 23 Sep 12:36:44 12:47:24 49° 45° (NE) 12:58:24 29.354 - 29.394 USB, Beacon 29.352 USB
Oscar 19 23 Sep 12:53:01 12:55:18 13° 59° (ENE) 12:57:34 437.125 CW, 437.150 USB
Sapphire 23 Sep 13:02:30 13:07:47 54° 304° (WNW) 13:13:06 437.095 MHz 1200 baud AX-25 AFSK
HO-68 23 Sep 13:09:11 13:12:39 14° 309° (NW) 13:16:08 435.675 MHz FM
FUNcube-1 23 Sep 13:17:22 13:20:37 19° 295° (WNW) 13:23:50 145.950 - 145.970 MHz USB
AO-27 23 Sep 13:22:59 13:23:52 10° 57° (ENE) 13:24:45 436.795 MHz FM
PCSat 23 Sep 13:29:47 13:34:35 32° 309° (NW) 13:39:26 145.825 MHz
Oscar 16 23 Sep 13:30:01 13:34:25 29° 66° (ENE) 13:38:50 437.025 USB, Beacon 2401.1428
JAS-1B 23 Sep 13:34:41 13:41:06 27° 64° (ENE) 13:46:43 435.800 - 435.900 CW/SSB
ITAMSAT 1 23 Sep 14:21:46 14:26:26 36° 68° (ENE) 14:31:08 435.822 SSB
Uribyol 2 23 Sep 14:24:43 14:29:31 41° 69° (ENE) 14:34:22 436.500 FM
Oscar 19 23 Sep 14:28:42 14:33:54 85° 256° (WSW) 14:39:08 437.125 CW, 437.150 USB
AO-7 23 Sep 14:30:56 14:33:08 11° 42° (NE) 14:35:19 29.400 - 29.500 MHz
Gurwin Techsat 1B 23 Sep 14:35:18 14:39:28 24° 65° (ENE) 14:43:39 435.225 FM
AO-Echo 23 Sep 14:47:57 14:52:38 71° 74° (ENE) 14:57:19 ?
RS-15 23 Sep 14:49:16 14:59:56 54° 248° (WSW) 15:11:03 29.354 - 29.394 USB, Beacon 29.352 USB
Sapphire 23 Sep 14:51:07 14:52:29 11° 325° (NW) 14:53:52 437.095 MHz 1200 baud AX-25 AFSK
AO-27 23 Sep 14:57:20 15:02:29 79° 74° (ENE) 15:07:41 436.795 MHz FM
TMSAT-1 23 Sep 15:08:52 15:13:36 35° 68° (ENE) 15:18:23 436.925 FM
Oscar 16 23 Sep 15:08:55 15:13:38 35° 263° (W) 15:18:24 437.025 USB, Beacon 2401.1428
JAS-1B 23 Sep 15:23:04 15:31:23 62° 258° (WSW) 15:38:21 435.800 - 435.900 CW/SSB
ITAMSAT 1 23 Sep 16:01:37 16:05:58 27° 265° (W) 16:10:22 435.822 SSB
Uosat F 23 Sep 16:03:05 16:06:38 20° 63° (ENE) 16:10:11 435.120 FM
Uribyol 2 23 Sep 16:04:58 16:09:07 24° 266° (W) 16:13:18 436.500 FM
Gurwin Techsat 1B 23 Sep 16:14:07 16:19:09 44° 261° (W) 16:24:14 435.225 FM
AO-7 23 Sep 16:16:04 16:23:57 50° 64° (ENE) 16:31:49 29.400 - 29.500 MHz
AO-Echo 23 Sep 16:30:33 16:31:55 11° 270° (W) 16:33:17 ?
AO-27 23 Sep 16:40:37 16:42:35 12° 271° (W) 16:44:33 436.795 MHz FM
TMSAT-1 23 Sep 16:48:59 16:53:32 29° 265° (W) 16:58:07 436.925 FM
MaSat-1 23 Sep 17:11:32 17:14:32 22° 53° (NE) 17:17:11 437.345 MHz
Saudisat 1A 23 Sep 17:16:49 17:21:13 90° 264° (W) 17:25:39 436.775 MHz
OPAL 23 Sep 17:20:12 17:22:40 13° 92° (E) 17:25:07 ?
Hamsat 23 Sep 17:35:45 17:38:19 16° 65° (ENE) 17:40:53 145.90 MHz
Uosat F 23 Sep 17:40:12 17:45:02 50° 260° (W) 17:49:54 435.120 FM
KITSAT 1 23 Sep 17:52:34 17:56:43 15° 100° (E) 18:00:52 435.175 FM
AO-7 23 Sep 18:09:20 18:16:51 38° 262° (W) 18:24:25 29.400 - 29.500 MHz
JAS-2 23 Sep 18:26:55 18:32:03 64° 73° (ENE) 18:37:14 435.800 - 435.900 CW/SSB, 435.910 FM
MaSat-1 23 Sep 18:48:22 18:51:03 20° 256° (WSW) 18:53:27 437.345 MHz
OPAL 23 Sep 18:56:55 19:02:04 71° 288° (WNW) 19:07:06 ?
Saudisat 1A 23 Sep 18:59:09 19:01:27 14° 321° (NW) 19:03:45 436.775 MHz
Hamsat 23 Sep 19:09:38 19:13:51 50° 261° (W) 19:18:06 145.90 MHz
SO-67 23 Sep 19:14:18 19:16:53 20° 70° (ENE) 19:19:28 435.3500 MHz FM
KITSAT 1 23 Sep 19:42:45 19:50:50 80° 118° (ESE) 19:58:56 435.175 FM
STRAND 1 23 Sep 19:45:19 19:49:38 27° 95° (E) 19:53:57 ?
HO-68 23 Sep 20:02:52 20:07:17 18° 54° (NE) 20:11:43 435.675 MHz FM
Sapphire 23 Sep 20:07:53 20:11:55 21° 45° (NE) 20:15:55 437.095 MHz 1200 baud AX-25 AFSK
JAS-2 23 Sep 20:15:12 20:17:44 14° 270° (W) 20:20:16 435.800 - 435.900 CW/SSB, 435.910 FM
PCSat 23 Sep 20:33:57 20:38:50 33° 51° (NE) 20:43:41 145.825 MHz
SO-67 23 Sep 20:47:04 20:49:48 22° 265° (W) 20:52:32 435.3500 MHz FM
UKube-1 23 Sep 21:20:52 21:23:52 19° 65° (ENE) 21:26:53 145.840 MHz, 145.915 MHz
STRAND 1 23 Sep 21:24:11 21:28:52 37° 292° (WNW) 21:33:33 ?
KITSAT 1 23 Sep 21:40:21 21:47:06 28° 320° (NW) 21:53:53 435.175 FM
HO-68 23 Sep 21:46:51 21:53:59 87° 73° (ENE) 22:01:11 435.675 MHz FM
ZACube-1 23 Sep 21:46:55 21:48:06 11° 60° (ENE) 21:49:18 437.345 MHz
Sapphire 23 Sep 21:50:27 21:55:52 69° 244° (WSW) 22:01:14 437.095 MHz 1200 baud AX-25 AFSK
SO-50 23 Sep 22:06:42 22:11:05 60° 119° (ESE) 22:15:37 436.795 FM
PCSat 23 Sep 22:17:19 22:22:17 37° 249° (WSW) 22:27:13 145.825 MHz
Oscar 11 23 Sep 22:33:59 22:38:20 81° 76° (ENE) 22:42:44 145.825 FM, Beacon 2401.500 USB
FUNcube-1 23 Sep 22:36:27 22:40:29 35° 70° (ENE) 22:44:38 145.950 - 145.970 MHz USB
UKube-1 23 Sep 22:55:41 22:59:46 40° 261° (W) 23:03:52 145.840 MHz, 145.915 MHz
ZACube-1 23 Sep 23:19:21 23:23:47 81° 258° (WSW) 23:28:22 437.345 MHz
UOSAT-12 23 Sep 23:19:54 23:23:50 28° 113° (ESE) 23:27:51 437.025 FM, 437.400 FM
HO-68 23 Sep 23:38:22 23:42:31 16° 270° (W) 23:46:43 435.675 MHz FM
KITSAT 1 23 Sep 23:43:25 23:45:53 11° 349° (NNW) 23:48:21 435.175 FM
SO-50 23 Sep 23:48:46 23:52:03 19° 318° (NW) 23:55:24 436.795 FM
Saudisat 1A 24 Sep 00:06:09 00:07:39 11° 36° (NE) 00:09:08 436.775 MHz
FUNcube-1 24 Sep 00:13:30 00:16:57 22° 267° (W) 00:20:29 145.950 - 145.970 MHz USB
UOSAT-12 24 Sep 00:59:36 01:03:52 35° 311° (NW) 01:08:13 437.025 FM, 437.400 FM
ISS 24 Sep 01:34:35 01:37:40 36° 137° (SE) 01:40:46 145.800 FM
